Time,TemperatureF,DewpointF,PressureIn,WindDirection,WindDirectionDegrees,WindSpeedMPH,WindSpeedGustMPH,Humidity,HourlyPrecipIn,Conditions,Clouds,dailyrainin,SoftwareType,DateUTC
2016-02-10 00:00:00,30.2,20.0,29.68,West,276,0.0,0.0,65,0.00,,,0.00,VWS V12.08,2016-02-10 05:00:00,
2016-02-10 00:13:00,30.4,20.0,29.68,West,276,0.0,0.0,65,0.00,,,0.00,VWS V12.08,2016-02-10 05:13:00,
2016-02-10 00:28:00,30.4,20.0,29.68,West,276,0.0,0.0,65,0.00,,,0.00,VWS V12.08,2016-02-10 05:28:00,
2016-02-10 00:40:00,30.2,20.0,29.68,West,276,0.0,0.0,65,0.00,,,0.00,VWS V12.08,2016-02-10 05:40:00,
2016-02-10 00:58:00,30.2,19.9,29.68,West,276,0.0,0.0,65,0.00,,,0.00,VWS V12.08,2016-02-10 05:58:00,
2016-02-10 01:00:00,30.2,19.9,29.68,West,276,0.0,0.0,65,0.00,,,0.00,VWS V12.08,2016-02-10 06:00:00,
2016-02-10 01:13:00,30.2,19.9,29.68,West,276,0.0,0.0,65,0.00,,,0.00,VWS V12.08,2016-02-10 06:13:00,
2016-02-10 01:20:00,30.2,19.9,29.68,West,276,0.0,0.0,65,0.00,,,0.00,VWS V12.08,2016-02-10 06:20:00,
2016-02-10 01:28:00,30.2,19.9,29.68,West,276,0.0,0.0,65,0.00,,,0.00,VWS V12.08,2016-02-10 06:28:00,
2016-02-10 01:43:00,29.5,18.3,29.68,West,276,0.0,0.0,63,0.00,,,0.00,VWS V12.08,2016-02-10 06:43:00,
2016-02-10 01:58:00,28.9,17.2,29.71,West,277,0.0,0.0,61,0.00,,,0.00,VWS V12.08,2016-02-10 06:58:00,
2016-02-10 02:00:00,28.8,17.0,29.68,West,276,0.0,0.0,61,0.00,,,0.00,VWS V12.08,2016-02-10 07:00:00,
2016-02-10 02:13:00,28.4,16.3,29.68,West,276,0.0,0.0,60,0.00,,,0.00,VWS V12.08,2016-02-10 07:13:00,
2016-02-10 02:32:00,28.0,15.8,29.68,West,276,0.0,0.0,59,0.00,,,0.00,VWS V12.08,2016-02-10 07:32:00,
2016-02-10 02:40:00,27.9,15.0,29.68,West,276,0.0,0.0,58,0.00,,,0.00,VWS V12.08,2016-02-10 07:40:00,
2016-02-10 02:41:00,27.9,15.0,29.68,West,276,0.0,0.0,58,0.00,,,0.00,VWS V12.08,2016-02-10 07:41:00,
2016-02-10 02:50:00,27.9,14.9,29.68,West,276,0.0,0.0,58,0.00,,,0.00,VWS V12.08,2016-02-10 07:50:00,
2016-02-10 02:55:00,27.7,14.4,29.68,West,276,0.0,0.0,58,0.00,,,0.00,VWS V12.08,2016-02-10 07:55:00,
2016-02-10 03:00:00,27.5,14.3,29.68,West,276,0.0,0.0,57,0.00,,,0.00,VWS V12.08,2016-02-10 08:00:00,
2016-02-10 03:15:00,27.5,14.3,29.68,West,276,0.0,0.0,57,0.00,,,0.00,VWS V12.08,2016-02-10 08:15:00,
2016-02-10 03:20:00,27.3,14.3,29.68,West,276,0.0,0.0,57,0.00,,,0.00,VWS V12.08,2016-02-10 08:20:00,
2016-02-10 03:25:00,27.1,13.9,29.68,West,276,0.0,0.0,57,0.00,,,0.00,VWS V12.08,2016-02-10 08:25:00,
2016-02-10 03:40:00,27.1,13.5,29.68,West,276,0.0,0.0,56,0.00,,,0.00,VWS V12.08,2016-02-10 08:40:00,
2016-02-10 03:44:00,27.1,13.5,29.68,West,276,0.0,0.0,56,0.00,,,0.00,VWS V12.08,2016-02-10 08:44:00,
2016-02-10 03:59:00,27.1,13.9,29.68,West,276,0.0,0.0,57,0.00,,,0.00,VWS V12.08,2016-02-10 08:59:00,
2016-02-10 04:05:00,27.1,13.9,29.68,West,276,0.0,0.0,57,0.00,,,0.00,VWS V12.08,2016-02-10 09:05:00,
2016-02-10 04:24:00,27.0,13.4,29.68,West,276,0.0,0.0,56,0.00,,,0.00,VWS V12.08,2016-02-10 09:24:00,
2016-02-10 04:42:00,27.0,13.4,29.68,West,276,0.0,0.0,56,0.00,,,0.00,VWS V12.08,2016-02-10 09:42:00,
2016-02-10 04:57:00,26.8,13.2,29.68,West,276,0.0,0.0,56,0.00,,,0.00,VWS V12.08,2016-02-10 09:57:00,
2016-02-10 05:00:00,26.8,13.2,29.68,West,276,0.0,0.0,56,0.00,,,0.00,VWS V12.08,2016-02-10 10:00:00,
2016-02-10 05:12:00,26.8,13.2,29.68,West,276,0.0,0.0,56,0.00,,,0.00,VWS V12.08,2016-02-10 10:12:00,
2016-02-10 05:27:00,26.8,13.2,29.68,West,276,0.0,0.0,56,0.00,,,0.00,VWS V12.08,2016-02-10 10:27:00,
2016-02-10 05:42:00,26.4,12.9,29.68,West,276,0.0,0.0,56,0.00,,,0.00,VWS V12.08,2016-02-10 10:42:00,
2016-02-10 05:57:00,26.4,12.9,29.68,West,276,0.0,0.0,56,0.00,,,0.00,VWS V12.08,2016-02-10 10:57:00,
2016-02-10 06:13:00,26.4,12.9,29.71,West,276,0.0,0.0,56,0.00,,,0.00,VWS V12.08,2016-02-10 11:13:00,
2016-02-10 06:42:00,26.8,13.2,29.71,West,276,0.0,0.0,56,0.00,,,0.00,VWS V12.08,2016-02-10 11:42:00,
2016-02-10 06:58:00,27.0,13.4,29.71,West,276,0.0,0.0,56,0.00,,,0.00,VWS V12.08,2016-02-10 11:58:00,
2016-02-10 07:00:00,27.1,13.5,29.71,West,276,0.0,0.0,56,0.00,,,0.00,VWS V12.08,2016-02-10 12:00:00,
2016-02-10 07:13:00,27.3,14.1,29.71,West,276,0.0,0.0,57,0.00,,,0.00,VWS V12.08,2016-02-10 12:13:00,
2016-02-10 07:28:00,27.5,14.3,29.71,West,276,0.0,0.0,57,0.00,,,0.00,VWS V12.08,2016-02-10 12:28:00,
2016-02-10 07:43:00,27.9,15.0,29.71,West,276,0.0,0.0,58,0.00,,,0.00,VWS V12.08,2016-02-10 12:43:00,
2016-02-10 07:58:00,28.4,15.7,29.71,West,276,0.0,0.0,59,0.00,,,0.00,VWS V12.08,2016-02-10 12:58:00,
2016-02-10 08:00:00,28.6,16.1,29.71,West,276,0.0,0.0,59,0.00,,,0.00,VWS V12.08,2016-02-10 13:00:00,
2016-02-10 08:13:00,28.9,17.0,29.71,West,276,0.0,0.0,60,0.00,,,0.00,VWS V12.08,2016-02-10 13:13:00,
2016-02-10 08:28:00,29.3,17.5,29.71,West,276,0.0,0.0,61,0.00,,,0.00,VWS V12.08,2016-02-10 13:28:00,
2016-02-10 08:43:00,30.2,19.0,29.71,West,276,0.0,0.0,63,0.00,,,0.00,VWS V12.08,2016-02-10 13:43:00,
2016-02-10 08:58:00,30.7,20.4,29.71,West,276,0.0,0.0,65,0.00,,,0.00,VWS V12.08,2016-02-10 13:58:00,
2016-02-10 09:00:00,30.7,20.7,29.71,West,276,0.0,0.0,66,0.00,,,0.00,VWS V12.08,2016-02-10 14:00:00,
2016-02-10 09:13:00,31.1,21.8,29.71,West,276,0.0,0.0,68,0.00,,,0.00,VWS V12.08,2016-02-10 14:13:00,
2016-02-10 09:28:00,31.1,22.1,29.71,West,276,0.0,0.0,69,0.00,,,0.00,VWS V12.08,2016-02-10 14:28:00,
2016-02-10 09:58:00,32.2,25.8,29.71,West,276,0.0,0.0,78,0.00,,,0.00,VWS V12.08,2016-02-10 14:58:00,
2016-02-10 10:00:00,32.2,26.1,29.71,West,276,0.0,0.0,78,0.00,,,0.00,VWS V12.08,2016-02-10 15:00:00,
2016-02-10 10:13:00,32.5,29.7,29.71,West,276,0.0,0.0,88,0.00,,,0.00,VWS V12.08,2016-02-10 15:13:00,
2016-02-10 10:28:00,32.7,32.0,29.71,West,276,0.0,0.0,96,0.00,,,0.00,VWS V12.08,2016-02-10 15:28:00,
2016-02-10 10:43:00,33.1,32.6,29.68,West,276,0.0,0.0,98,0.00,,,0.00,VWS V12.08,2016-02-10 15:43:00,
2016-02-10 10:58:00,33.3,32.8,29.68,West,266,0.0,3.1,98,0.00,,,0.00,VWS V12.08,2016-02-10 15:58:00,
2016-02-10 11:00:00,33.3,32.8,29.68,West,266,0.0,3.1,98,0.00,,,0.00,VWS V12.08,2016-02-10 16:00:00,
2016-02-10 11:27:00,33.4,32.8,29.65,SE,127,0.0,0.0,98,0.00,,,0.00,VWS V12.08,2016-02-10 16:27:00,
2016-02-10 11:42:00,34.3,33.8,29.65,South,191,2.2,3.6,98,0.00,,,0.00,VWS V12.08,2016-02-10 16:42:00,
2016-02-10 11:57:00,34.9,34.2,29.65,SSW,195,0.0,4.0,98,0.00,,,0.00,VWS V12.08,2016-02-10 16:57:00,
2016-02-10 12:27:00,34.0,33.2,29.65,SSW,192,0.0,3.1,97,0.00,,,0.00,VWS V12.08,2016-02-10 17:27:00,
2016-02-10 12:43:00,34.2,33.2,29.65,SSW,192,0.0,0.0,97,0.00,,,0.00,VWS V12.08,2016-02-10 17:43:00,
2016-02-10 12:57:00,33.8,33.0,29.65,East,90,0.0,0.0,97,0.00,,,0.00,VWS V12.08,2016-02-10 17:57:00,
2016-02-10 13:00:00,33.8,33.0,29.65,East,90,0.0,0.0,97,0.00,,,0.00,VWS V12.08,2016-02-10 18:00:00,
2016-02-10 13:13:00,33.8,33.0,29.65,East,87,0.0,0.0,97,0.00,,,0.00,VWS V12.08,2016-02-10 18:13:00,
2016-02-10 13:28:00,33.8,33.0,29.65,East,87,0.0,0.0,97,0.00,,,0.00,VWS V12.08,2016-02-10 18:28:00,
2016-02-10 13:42:00,33.8,32.8,29.62,East,87,0.0,0.0,96,0.00,,,0.00,VWS V12.08,2016-02-10 18:42:00,
2016-02-10 13:58:00,33.8,32.8,29.62,East,87,0.0,0.0,96,0.00,,,0.00,VWS V12.08,2016-02-10 18:58:00,
2016-02-10 14:00:00,33.8,32.8,29.62,East,87,0.0,0.0,96,0.00,,,0.00,VWS V12.08,2016-02-10 19:00:00,
2016-02-10 14:13:00,33.6,32.6,29.62,North,0,0.0,0.0,96,0.00,,,0.00,VWS V12.08,2016-02-10 19:13:00,
2016-02-10 14:28:00,33.4,32.6,29.62,North,0,0.0,0.0,96,0.00,,,0.00,VWS V12.08,2016-02-10 19:28:00,
2016-02-10 14:43:00,33.8,32.8,29.62,North,0,0.0,0.0,96,0.00,,,0.00,VWS V12.08,2016-02-10 19:43:00,
2016-02-10 14:58:00,33.8,32.8,29.62,North,0,0.0,0.0,96,0.00,,,0.00,VWS V12.08,2016-02-10 19:58:00,
2016-02-10 15:00:00,33.8,32.8,29.62,North,0,0.0,0.0,96,0.00,,,0.00,VWS V12.08,2016-02-10 20:00:00,
2016-02-10 15:13:00,33.6,32.6,29.62,North,0,0.0,0.0,96,0.00,,,0.00,VWS V12.08,2016-02-10 20:13:00,
2016-02-10 15:28:00,33.6,32.6,29.62,North,0,0.0,0.0,96,0.00,,,0.00,VWS V12.08,2016-02-10 20:28:00,
2016-02-10 15:43:00,33.8,32.5,29.62,North,0,0.0,0.0,95,0.00,,,0.00,VWS V12.08,2016-02-10 20:43:00,
2016-02-10 15:58:00,33.8,32.7,29.65,North,0,0.0,0.0,95,0.00,,,0.00,VWS V12.08,2016-02-10 20:58:00,